Theta_e
345 350 351 354 359 357 352 340 337 338 338 342 343 343 343 342 339 341 346 344 342 340 343 343 341 340 342 342 342 342 340 339 338 333 332 333 336 337 339 339 333 333 335 336 334 334 334 334 335
345 350 352 354 363 359 339 338 338 339 344 346 346 346 347 350 349 349 347 347 348 341 343 342 340 341 342 342 342 343 342 340 341 333 333 334 334 334 334 336 339 337 335 334 335 337 336 337 333
350 353 354 359 356 359 345 339 338 340 342 343 343 347 348 352 348 347 347 349 348 340 339 337 338 340 341 340 340 341 342 341 341 334 334 334 332 332 335 336 338 339 340 339 336 333 337 338 325
355 355 353 350 353 350 346 345 343 344 344 346 346 347 348 345 346 347 349 349 339 338 339 338 337 336 334 334 334 338 341 340 340 338 334 331 333 335 336 335 338 339 340 340 337 335 334 328 329
352 343 347 350 347 344 343 342 341 344 345 346 348 349 348 349 348 349 349 343 336 336 338 338 336 333 331 332 331 333 335 337 339 337 341 339 339 337 337 337 332 339 336 338 338 334 326 328 331
343 341 349 352 348 344 342 341 342 344 346 349 348 348 348 348 348 349 349 340 334 331 333 336 333 330 332 333 331 330 332 335 335 331 331 340 340 340 339 337 330 337 338 331 337 325 329 326 330
341 345 350 349 348 345 343 341 342 344 346 349 348 348 349 349 347 348 348 340 332 330 331 332 330 330 331 332 331 329 328 329 333 335 339 339 340 340 340 341 336 325 332 336 328 328 334 326 337
343 346 349 347 348 346 341 340 341 343 345 347 346 348 347 350 349 349 348 338 333 331 331 330 330 329 330 331 332 330 328 333 340 335 337 339 341 337 338 339 340 324 328 337 335 338 333 325 337
345 347 349 349 347 342 339 340 340 343 345 345 346 345 345 348 350 350 348 346 340 333 332 331 330 329 330 331 332 333 330 328 332 342 331 331 334 339 342 336 337 325 339 337 328 327 323 324 330
351 348 347 345 343 343 340 338 342 342 338 341 347 345 346 347 348 349 349 348 347 341 335 334 331 330 330 331 332 334 333 330 329 330 335 337 329 337 338 335 336 335 326 336 329 327 325 326 328
345 351 347 345 343 342 341 340 341 343 343 344 347 346 347 347 348 348 349 349 348 348 345 338 333 331 331 331 332 334 335 335 336 336 335 335 332 332 336 333 332 335 332 324 329 331 326 335 330
336 335 338 342 344 343 341 341 342 341 342 345 345 345 347 347 348 349 349 349 349 350 349 342 335 333 332 332 333 334 336 336 337 338 337 339 341 341 337 343 342 339 334 329 332 332 331 333 335
331 330 332 331 336 343 343 343 343 336 330 343 346 346 346 347 347 348 351 352 353 352 351 348 337 333 333 334 334 334 335 337 337 340 339 341 346 346 347 346 345 344 341 337 328 333 332 334 334
332 330 331 331 330 330 337 337 331 329 332 343 348 347 346 346 346 346 348 350 352 352 350 350 348 344 337 336 334 337 339 336 337 340 342 338 343 344 344 344 346 346 344 344 336 329 327 333 337
329 329 327 328 329 326 326 324 325 328 330 339 346 348 347 346 346 346 346 347 348 350 350 349 350 349 348 347 339 341 339 340 340 343 343 343 347 346 346 343 346 344 344 344 344 343 335 332 329
325 324 324 325 325 325 324 324 326 328 329 336 340 344 348 348 347 347 347 346 347 347 349 348 350 349 350 348 342 344 345 342 345 344 347 343 347 345 347 345 345 344 346 344 344 344 343 342 342
319 321 322 323 324 324 324 324 326 328 328 330 342 341 347 348 348 348 348 348 347 347 348 347 348 349 349 349 347 346 346 346 345 340 343 344 344 345 346 347 346 347 345 346 343 344 343 343 343
321 322 321 323 324 324 324 322 324 326 327 335 343 343 347 347 348 348 348 349 349 348 348 347 346 348 349 348 348 348 349 348 346 351 347 340 342 345 346 348 348 348 347 346 344 344 345 343 345
321 321 321 322 323 324 323 322 323 325 325 325 345 346 348 348 347 348 347 349 350 349 349 348 347 347 349 349 349 349 350 349 349 349 349 345 346 345 343 345 348 348 348 344 343 342 343 343 342
323 323 323 323 323 323 321 322 323 324 324 326 326 328 344 349 348 348 347 350 351 350 350 349 348 347 348 348 348 348 346 350 348 349 350 349 347 347 348 346 345 344 342 341 343 344 343 341 341
323 322 320 322 322 321 322 321 320 322 324 329 330 330 330 333 336 346 347 349 349 350 350 349 349 348 348 348 349 349 347 347 348 349 348 350 349 349 347 345 346 346 346 341 341 341 344 344 346
322 323 323 322 321 320 321 320 321 321 325 326 329 330 331 334 335 336 348 349 349 348 348 349 349 348 348 348 348 349 345 343 341 342 346 348 348 346 348 348 347 348 349 344 340 342 344 345 344
322 323 323 322 320 320 321 321 321 324 325 325 326 330 332 332 334 346 348 347 348 349 349 349 348 349 348 348 346 347 344 336 335 336 337 341 342 346 349 348 348 349 350 346 340 344 346 345 345
324 323 319 318 316 318 319 320 322 334 331 325 329 331 331 332 333 334 338 345 345 348 348 349 350 348 348 348 348 345 341 337 336 338 337 339 341 346 348 349 349 350 351 348 344 343 344 344 345
320 318 319 320 320 321 321 321 331 335 335 333 332 332 332 330 331 334 336 339 345 346 349 350 350 349 348 349 349 347 342 340 336 338 341 344 345 344 346 348 350 349 347 347 345 344 343 344 346
323 319 319 322 321 322 320 323 333 337 337 334 333 332 331 332 332 333 338 335 346 349 350 354 354 353 352 348 349 349 347 343 340 339 343 345 347 348 348 349 352 352 348 348 347 345 343 341 344
324 324 321 320 319 320 321 329 332 334 334 334 333 334 334 336 334 333 335 333 337 351 352 356 357 355 354 356 355 351 349 346 343 341 343 345 348 350 352 352 352 353 353 352 348 343 342 344 344
324 323 327 322 328 330 327 331 329 335 336 334 333 334 336 337 344 337 334 335 334 338 351 354 356 355 357 356 355 354 351 349 345 343 346 348 349 350 355 354 354 352 347 347 346 342 343 343 344
321 320 325 323 324 329 329 329 327 336 336 334 334 338 341 345 346 338 334 332 335 338 335 347 343 341 349 357 358 356 353 351 347 344 344 346 352 355 353 353 353 350 339 342 344 344 341 345 346
321 326 324 325 326 325 326 328 334 335 335 335 333 334 344 346 346 344 343 333 334 338 337 336 339 338 337 356 360 358 354 353 351 345 342 346 353 354 354 354 353 343 336 339 338 343 346 345 345
Wind_Speed
5 4 6 5 2 1 5 2 5 5 5 12 18 8 6 7 5 3 19 28 29 29 32 28 23 21 20 20 17 18 19 18 17 19 21 19 19 19 18 18 19 19 19 17 15 14 14 14 13
2 1 5 3 3 4 5 2 7 9 17 28 20 17 6 4 12 17 32 24 27 28 30 29 25 22 21 20 19 18 17 18 16 16 18 19 18 17 16 16 17 18 17 16 15 14 12 14 14
2 0 1 3 3 4 7 5 6 18 23 17 7 15 9 6 18 30 26 23 26 31 30 29 25 22 21 20 19 19 19 17 17 16 17 16 16 15 16 16 17 17 16 16 16 13 14 19 18
3 2 1 2 4 2 8 14 7 11 21 19 18 7 7 18 25 24 28 25 30 30 28 27 26 22 19 18 18 17 18 17 16 16 15 16 15 16 15 16 16 14 15 15 15 14 17 19 24
0 1 2 3 3 6 11 10 10 9 6 18 16 8 13 16 19 26 25 23 32 30 28 26 25 23 20 18 17 18 17 16 16 16 15 15 15 14 14 14 14 14 14 14 13 13 16 21 24
4 1 4 3 8 14 12 19 22 3 18 20 13 12 5 23 23 26 22 22 29 30 29 26 25 23 21 19 18 17 18 17 16 16 15 15 15 14 14 13 13 15 12 13 13 13 18 21 26
6 3 2 4 12 11 3 10 9 2 16 11 29 4 15 31 24 26 21 25 30 28 27 25 24 23 21 20 18 17 17 17 16 14 15 14 14 14 14 13 13 14 14 12 15 16 19 22 27
6 4 6 9 12 9 5 4 11 10 13 22 31 8 15 34 30 31 27 29 29 30 31 29 26 24 22 20 18 17 17 18 18 16 15 15 14 14 14 14 12 13 15 14 15 14 17 21 27
10 4 3 7 7 7 17 3 5 15 20 27 14 21 33 33 35 33 36 33 32 30 31 30 29 26 24 22 20 18 17 17 17 16 15 15 14 14 14 13 12 12 13 14 14 14 16 19 25
9 6 18 14 18 5 18 13 16 9 19 27 13 17 42 42 39 41 40 40 38 34 31 29 28 27 26 25 23 22 21 20 19 18 17 16 15 14 13 13 12 11 12 13 13 15 19 20 24
6 8 10 21 35 30 18 20 15 15 15 21 28 42 45 43 39 38 40 37 39 33 30 29 29 29 28 27 26 24 23 22 20 18 18 16 17 17 15 14 13 11 11 13 14 17 20 18 21
5 17 8 9 32 13 15 19 12 17 29 26 26 43 50 49 42 40 41 40 39 36 29 27 29 30 29 28 28 25 23 22 22 21 20 19 19 18 17 15 12 10 10 11 13 15 18 18 18
4 7 13 10 8 29 31 20 16 20 20 24 32 46 46 50 46 37 37 37 36 35 31 26 26 31 29 28 27 26 25 24 22 23 22 21 19 18 17 15 12 9 10 11 13 15 17 19 19
10 10 18 23 14 10 11 15 10 33 8 28 40 47 45 48 47 42 35 35 38 35 33 29 28 26 28 28 29 25 23 23 23 22 21 21 20 19 18 16 13 13 9 9 12 14 19 21 20
13 7 7 12 19 14 17 11 11 33 23 29 35 37 36 43 43 44 47 41 38 38 34 32 32 29 26 24 28 25 23 23 26 24 22 21 20 21 17 17 14 10 10 8 10 16 18 19 21
4 4 5 8 7 13 3 11 21 29 15 27 35 39 42 47 45 44 45 45 43 42 39 34 34 34 31 26 26 26 26 25 26 22 22 21 25 22 19 19 18 15 14 14 12 17 22 20 22
5 4 6 9 6 6 6 9 14 24 18 7 33 41 42 45 46 46 46 45 46 49 44 40 38 38 34 31 26 29 28 26 24 19 21 21 25 24 25 24 20 20 18 16 16 17 22 24 22
6 3 5 7 11 11 9 8 8 23 14 2 24 33 41 44 53 48 49 48 48 50 48 44 41 39 38 34 30 31 30 29 27 24 28 24 21 27 26 24 23 23 21 19 18 21 22 26 24
5 6 12 16 16 4 11 8 10 15 11 1 18 23 31 37 46 48 49 52 53 50 50 48 47 44 43 42 38 37 38 35 33 29 25 26 22 28 29 27 26 26 28 24 18 19 22 23 26
10 10 13 12 8 2 8 9 6 6 9 12 9 9 36 43 41 47 48 51 57 56 53 51 49 47 47 45 41 39 39 40 37 34 30 27 26 29 29 28 26 30 30 26 22 22 23 22 22
11 6 6 5 4 4 2 8 7 11 11 9 6 9 8 5 14 43 45 56 59 58 58 55 53 48 49 46 45 42 41 41 40 40 36 33 29 27 26 25 25 24 25 30 26 24 27 26 24
2 3 3 9 7 6 5 5 8 5 9 5 7 12 24 23 19 14 45 53 60 61 60 58 56 53 49 49 48 47 46 48 47 45 44 41 35 30 28 28 27 25 24 27 30 28 27 29 27
8 3 4 4 6 4 8 3 8 6 8 8 9 21 12 16 20 18 10 23 41 57 59 62 60 58 54 52 49 47 46 43 43 42 41 41 39 34 31 30 29 29 25 25 29 28 29 29 27
5 3 7 5 4 3 8 5 4 6 7 8 10 19 24 18 12 10 5 9 41 57 61 60 63 59 57 55 52 48 46 43 41 39 37 37 38 36 33 32 32 30 26 26 29 30 31 31 30
10 6 4 5 5 6 2 4 7 6 5 3 7 22 28 30 21 19 13 11 9 36 47 55 60 63 57 56 54 50 46 43 40 38 34 35 33 35 34 32 33 29 25 28 27 26 27 30 31
8 5 4 6 4 8 5 2 3 6 7 4 14 26 28 30 30 26 23 23 14 10 25 31 34 42 52 57 55 51 46 44 40 37 34 32 32 27 27 28 29 29 25 25 26 30 32 32 30
10 7 5 2 2 3 2 4 4 3 4 10 15 19 24 28 30 22 18 16 15 7 14 14 19 30 39 41 45 49 46 44 41 38 34 31 30 28 26 25 27 29 28 27 25 23 20 26 27
2 6 6 4 4 4 5 1 4 6 7 8 11 14 14 21 25 24 21 16 5 2 14 13 11 8 27 40 47 48 45 45 40 39 35 33 32 30 28 26 26 24 21 24 25 25 24 24 24
9 6 4 2 3 2 2 5 6 4 3 7 7 16 14 16 15 13 18 14 14 12 4 15 14 11 22 31 44 47 46 45 42 41 38 37 34 32 33 30 27 23 20 21 24 23 21 22 22
6 4 3 3 7 3 3 6 1 3 1 3 8 15 13 12 7 8 9 11 10 14 8 15 29 33 39 28 37 43 40 45 43 42 42 40 36 33 32 31 28 22 20 21 22 21 20 19 22
Wind_Direction
27 334 300 331 295 63 275 135 127 94 63 113 146 142 179 125 162 196 143 166 159 170 176 178 172 167 164 157 160 152 150 148 139 142 142 141 140 139 138 144 148 151 153 151 144 142 141 136 136
360 246 320 288 321 27 299 139 105 119 121 111 107 110 79 92 119 135 155 165 168 168 167 169 170 166 163 165 162 162 158 151 145 144 145 145 147 140 142 148 150 154 159 160 151 145 150 147 138
114 223 111 277 49 34 328 314 122 128 122 114 110 104 123 118 140 147 158 166 174 172 168 165 167 166 165 167 168 165 163 160 153 153 150 150 147 144 143 143 145 153 156 156 153 146 137 139 140
100 235 342 37 29 256 353 313 101 106 97 103 113 93 98 145 154 160 161 170 172 174 171 165 165 166 167 167 166 165 164 161 159 155 153 150 150 147 142 141 143 147 156 156 153 145 141 137 141
228 28 55 100 279 323 321 321 240 134 108 123 133 121 130 170 154 158 160 170 171 172 173 171 166 166 169 168 167 166 165 164 162 161 162 154 153 151 146 147 152 152 150 154 158 155 147 146 150
57 20 47 24 319 323 357 5 302 103 137 126 108 115 129 169 163 158 161 164 172 171 173 175 170 168 168 169 169 167 167 170 171 168 166 164 161 160 155 155 156 157 161 164 170 160 147 151 155
112 64 19 23 338 320 54 299 267 331 151 155 132 112 144 162 164 163 163 157 168 169 169 175 174 173 172 170 168 168 170 170 167 166 166 166 168 169 165 161 161 165 161 158 157 151 149 154 158
101 71 33 42 292 275 269 257 296 90 222 152 138 164 173 174 167 169 165 163 161 168 171 175 179 179 176 172 170 170 170 169 170 170 174 172 169 172 170 166 169 165 163 166 162 160 156 160 166
140 77 58 187 233 243 276 208 61 66 16 290 221 171 169 171 172 173 172 175 174 173 178 179 179 183 181 177 174 175 174 176 173 171 176 176 179 175 172 170 173 171 168 174 168 166 161 161 169
176 142 196 206 226 252 267 326 118 107 178 277 174 160 161 170 175 182 184 182 183 182 184 185 185 185 186 184 182 179 178 179 179 179 178 172 172 177 175 176 180 177 180 185 175 166 160 159 171
217 230 188 218 224 230 252 275 284 159 211 223 153 156 164 174 181 184 190 196 190 190 191 192 191 189 190 190 188 185 183 183 183 181 180 176 173 174 178 176 182 183 184 193 185 173 172 170 176
262 276 201 258 227 230 243 257 267 217 232 208 185 170 169 174 185 190 192 191 193 191 194 194 198 194 194 196 194 191 188 186 187 182 182 186 182 178 173 174 182 193 200 197 199 187 181 181 182
254 285 303 328 272 219 244 262 258 276 273 189 172 170 176 178 185 195 199 193 195 195 194 189 189 197 199 200 199 196 195 194 190 189 188 184 187 190 186 187 181 189 201 202 207 198 189 186 183
277 314 324 322 310 264 226 259 253 286 254 171 172 177 183 181 184 190 200 200 199 202 198 193 190 193 200 201 200 195 200 202 199 195 197 195 190 187 190 191 194 204 203 200 201 201 195 193 198
337 350 331 299 308 304 316 308 280 283 279 182 174 180 184 192 188 194 197 209 209 206 205 201 198 198 201 204 201 199 193 197 198 196 195 198 195 192 194 199 203 206 207 207 202 201 186 193 206
351 24 16 292 265 268 138 271 278 295 299 212 184 182 191 193 200 200 201 201 210 215 210 206 203 204 206 204 200 197 194 197 199 194 203 199 202 201 206 208 213 214 221 226 223 212 207 199 199
346 249 259 302 271 267 158 261 281 306 328 296 188 189 192 195 201 209 210 206 205 212 212 214 209 207 211 208 206 204 200 207 215 216 216 206 211 211 214 214 219 218 227 235 230 224 221 218 213
239 237 274 263 282 306 289 261 280 307 340 355 194 192 192 195 205 213 215 214 210 207 213 215 214 210 212 212 209 208 208 212 212 218 221 215 216 215 214 218 222 224 230 237 232 226 223 225 222
223 248 265 273 278 267 278 281 283 300 333 131 186 193 214 213 217 216 219 215 212 212 213 213 215 212 210 208 207 209 208 210 217 220 218 213 215 215 219 222 230 235 240 241 234 228 220 223 225
243 260 271 282 258 73 308 297 304 330 314 317 321 195 212 215 226 220 215 210 214 214 214 214 215 216 212 215 214 215 212 214 220 224 223 218 220 222 226 230 230 235 240 238 235 223 222 217 219
256 229 246 265 310 315 30 328 330 311 315 41 44 359 76 73 240 237 209 208 217 215 215 216 215 217 215 215 214 215 217 216 219 225 225 221 221 225 231 229 231 237 241 233 229 231 225 222 220
323 245 341 321 19 309 90 287 308 286 295 336 351 355 47 60 46 223 205 209 212 221 222 217 217 216 217 216 217 217 217 215 218 220 222 226 229 228 234 238 240 242 247 237 232 237 225 228 225
249 243 294 298 322 21 316 72 270 18 335 325 330 2 57 56 64 85 178 221 220 225 223 223 215 219 216 218 218 219 220 219 220 219 221 222 225 227 231 237 239 240 242 235 228 228 234 235 234
258 5 19 37 75 10 268 132 325 350 297 333 358 5 353 6 44 4 143 343 224 228 228 224 218 219 218 217 218 220 221 216 219 220 219 221 222 226 231 234 239 243 244 237 228 228 233 236 240
29 44 329 347 357 234 258 65 223 269 322 322 310 357 7 1 8 12 27 357 4 225 227 225 219 219 221 220 220 221 223 221 220 219 217 215 219 223 229 233 238 242 245 242 240 232 235 239 238
283 152 159 275 243 272 334 254 218 226 254 327 19 27 21 24 16 12 20 28 7 209 221 223 221 220 222 224 223 222 225 225 223 223 221 219 221 225 227 235 242 243 245 253 252 251 243 238 238
324 352 229 230 22 61 240 353 316 310 338 3 20 31 30 16 20 18 4 15 24 212 196 214 228 230 229 229 225 225 226 227 224 225 226 227 228 232 237 242 246 245 252 252 249 244 236 233 236
100 274 346 8 339 306 311 204 240 319 326 335 359 2 14 0 4 7 7 349 336 256 196 183 196 246 246 235 235 234 232 231 226 226 226 228 231 234 239 239 242 250 251 235 236 231 238 240 242
338 342 7 113 147 202 240 262 219 227 285 315 338 2 10 37 15 18 12 333 319 222 213 231 263 296 301 255 236 237 235 234 230 227 225 228 230 233 237 240 244 246 239 229 229 236 241 243 246
189 258 113 93 298 246 177 268 116 111 333 335 20 0 53 58 39 22 7 358 298 245 186 242 251 276 319 264 236 234 233 235 235 228 224 225 229 232 235 241 242 238 236 228 229 228 233 246 248